Orbital Elements at Epoch 2459200.5 (2020-Dec-17.0) TDB
Reference: JPL 18 (heliocentric ecliptic J2000)
Element | Value | Uncertainty (1-sigma) | Units |
e | .1765830329947367 | 4.3442e-08 | |
a | 2.475132103218883 | 1.5799e-08 | au |
q | 2.038065769369851 | 1.0387e-07 | au |
i | 9.998152989782835 | 3.7992e-06 | deg |
node | 97.46428773399167 | 3.5204e-05 | deg |
peri | 133.4209949366748 | 3.9341e-05 | deg |
M | 124.5003496508311 | 1.8609e-05 | deg |
tp | 2458708.614441685866 (2019-Aug-13.11444169) | 7.3942e-05 | TDB |
period | 1422.315692202606 3.89 | 1.3618e-05 3.728e-08 | d yr |
n | .2531083654448767 | 2.4235e-09 | deg/d |
Q | 2.912198437067915 | 1.8589e-08 | au |
|
| | Orbit Determination Parameters
Additional Information
|